Hourly Data Report for May 31, 2012

All times are specified in Local Standard Time (LST). Add 1 hour to adjust for Daylight Saving Time where and when it is observed.

PENTICTON A
BRITISH COLUMBIA

49°27'45.000" N
119°36'08.000" W
344.40 m
1126146
71889
YYF

Download Data

Hourly Data (May 2012)
Hourly Data Report for May 31, 2012
Temp Definition
°C
Dew Point Temp Definition
°C
Rel Hum Definition
%
Wind Dir Definition
10's deg

Wind Spd Definition
km/h
Visibility Definition
km
Stn Press Definition
kPa
Hmdx Definition


Wind Chill Definition


Weather Definition


TIME
00:00 Legend Double Dagger 17.0 6.3 49 4 5 10.0 97.66     Rain Showers
01:00 Legend Double Dagger 15.9 6.7 54 36 10 10.0 97.67     Rain Showers
02:00 Legend Double Dagger 14.9 8.9 67 32 5 10.0 97.70     Rain Showers
03:00 Legend Double Dagger 13.8 9.1 73 32 5 10.0 97.72     Rain Showers
04:00 Legend Double Dagger 13.3 10.0 80 35 12 10.0 97.74     Cloudy
05:00 Legend Double Dagger 12.9 9.8 81 31 9 10.0 97.70     LegendNANA
06:00 Legend Double Dagger 13.7 10.2 79 0 13 10.0 97.73     LegendNANA
07:00 Legend Double Dagger 14.3 10.2 76 34 8 10.0 97.71     Cloudy
08:00 Legend Double Dagger 15.1 9.5 69 1 5 10.0 97.71     LegendNANA
09:00 Legend Double Dagger 16.8 9.6 62 1 5 10.0 97.65     LegendNANA
10:00 Legend Double Dagger 18.0 9.5 57 19 6 10.0 97.63     Mostly Cloudy
11:00 Legend Double Dagger 19.2 10.1 55   0 10.0 97.58     LegendNANA
12:00 Legend Double Dagger 21.2 9.6 47 17 17 10.0 97.48     LegendNANA
13:00 Legend Double Dagger 20.2 10.2 52 17 14 10.0 97.50     Cloudy
14:00 Legend Double Dagger 22.4 9.4 43 17 19 10.0 97.46     LegendNANA
15:00 Legend Double Dagger 20.9 11.1 53 17 22 10.0 97.39     LegendNANA
16:00 Legend Double Dagger 21.2 10.8 51 18 19 10.0 97.34     Mostly Cloudy
17:00 Legend Double Dagger 21.7 9.7 46 17 16 10.0 97.29     LegendNANA
18:00 Legend Double Dagger 21.1 11.0 52 18 10 10.0 97.30     LegendNANA
19:00 Legend Double Dagger 20.2 11.5 57   0 10.0 97.30     Mostly Cloudy
20:00 Legend Double Dagger 21.2 4.5 33 26 21 10.0 97.30     LegendNANA
21:00 Legend Double Dagger 18.4 6.1 44 34 12 10.0 97.34     LegendNANA
22:00 Legend Double Dagger 17.2 6.2 48 34 8 10.0 97.33     Mostly Cloudy
23:00 Legend Double Dagger 16.0 6.0 51   0 10.0 97.33     LegendNANA

Notes on Data Quality.

Legend

  • E = Estimated
  • M = Missing
  • NA = Not Available
  • ‡ = Partner data that is not subject to review by the National Climate Archives
Date modified: